(4) Vesta
ephemeris date magn radius delta ra dec elong phase
Today7 Jul 20257.12.153 AU1.555 AU14h26m-07°41'112.0°26.0°
Opposition12 Oct 20266.52.467 AU1.482 AU01h30m-03°16'168.1°4.8°
(4) Vesta - 2025-07-07
astro.vanbuitenen.nl


 
-1 year
-1 month
-1 day
Now
+1 day
+1 month
+1 year

The interactive orbit chart above shows the body's path through the solar system and its position at the given date. Green and blue lines are shown perpendicular to the ecliptic plane: Green if the path is above the ecliptic plane, blue if it is below. (Left-click and drag to rotate the view; Right-click and drag to move the view; Use scroll wheel to zoom in our out.)

The orbital elements of Vesta are:

            e (Eccentricity)                : 0.0901071
            a (Semimajor axis)              : 2.3613975
            i (Inclination)                 : 7.14395
            Ω (Longitude of ascending node) : 103.70294
            ω (Argument of perihelion)      : 151.58337
            M (Mean anomaly)                : 332.45068
            Epoch                           : 2025 May 05

            L (Longitude of perihelion)     : 75.47280
            B (Latitude of perihelion)      : 3.39284
            P (Orbital period in years)     : 3.63            
        

The light curve chart below shows the estimated development of the minor planet's magnitude.


The all-sky chart below shows the path of the minor planet over the same period as the light curve. The current position is marked yellow.





The following chart shows the path of the minor planet in the next few days. The field of view is optimized for (~10x50) binoculars and finderscopes. A more printer-friendly version of the same chart can be found below.




Ephemerides:
Date       Time       RA (2000)    DEC (2000)    delta   radius  elong  phase   PA    magn
2025-07-07 00:00 UT   14 26 54.9   -07 41 55     1.555    2.153  112.0   26.0   111    7.1 
2025-07-07 05:23 UT   14 27 02.0   -07 43 43     1.557    2.153  111.8   26.0   111    7.1 
2025-07-08 00:00 UT   14 27 27.3   -07 50 00     1.565    2.153  111.2   26.1   111    7.1 
2025-07-09 00:00 UT   14 28 01.3   -07 58 11     1.575    2.152  110.4   26.3   111    7.1 
2025-07-10 00:00 UT   14 28 36.8   -08 06 26     1.585    2.152  109.7   26.4   111    7.1 
2025-07-11 00:00 UT   14 29 13.8   -08 14 45     1.596    2.152  108.9   26.5   111    7.1 
2025-07-12 00:00 UT   14 29 52.4   -08 23 09     1.606    2.152  108.2   26.7   111    7.1 
2025-07-13 00:00 UT   14 30 32.4   -08 31 37     1.616    2.152  107.4   26.8   110    7.2 
2025-07-14 00:00 UT   14 31 13.9   -08 40 09     1.627    2.151  106.7   26.9   110    7.2 
2025-07-15 00:00 UT   14 31 56.8   -08 48 44     1.637    2.151  106.0   27.0   110    7.2 
2025-07-16 00:00 UT   14 32 41.2   -08 57 24     1.648    2.151  105.2   27.1   110    7.2 
2025-07-17 00:00 UT   14 33 27.0   -09 06 06     1.658    2.151  104.5   27.2   110    7.2 
2025-07-18 00:00 UT   14 34 14.1   -09 14 52     1.669    2.151  103.8   27.3   110    7.2 
2025-07-19 00:00 UT   14 35 02.7   -09 23 42     1.679    2.151  103.1   27.4   109    7.3 
2025-07-20 00:00 UT   14 35 52.7   -09 32 34     1.690    2.150  102.4   27.5   109    7.3 
2025-07-21 00:00 UT   14 36 44.0   -09 41 30     1.701    2.150  101.7   27.6   109    7.3 
2025-07-22 00:00 UT   14 37 36.6   -09 50 28     1.711    2.150  101.0   27.6   109    7.3 
2025-07-23 00:00 UT   14 38 30.6   -09 59 29     1.722    2.150  100.3   27.7   109    7.3 
2025-07-24 00:00 UT   14 39 25.8   -10 08 32     1.733    2.150   99.6   27.8   109    7.3 
2025-07-25 00:00 UT   14 40 22.4   -10 17 38     1.744    2.150   98.9   27.8   109    7.4 
2025-07-26 00:00 UT   14 41 20.3   -10 26 45     1.755    2.150   98.2   27.9   108    7.4 
2025-07-27 00:00 UT   14 42 19.4   -10 35 55     1.766    2.150   97.6   27.9   108    7.4 
2025-07-28 00:00 UT   14 43 19.7   -10 45 07     1.777    2.149   96.9   28.0   108    7.4 
2025-07-29 00:00 UT   14 44 21.3   -10 54 20     1.788    2.149   96.2   28.0   108    7.4 
2025-07-30 00:00 UT   14 45 24.1   -11 03 35     1.799    2.149   95.6   28.0   108    7.4 
2025-07-31 00:00 UT   14 46 28.1   -11 12 52     1.810    2.149   94.9   28.1   108    7.4 
2025-08-01 00:00 UT   14 47 33.3   -11 22 09     1.821    2.149   94.3   28.1   108    7.5 
2025-08-02 00:00 UT   14 48 39.6   -11 31 28     1.832    2.149   93.6   28.1   107    7.5 
2025-08-03 00:00 UT   14 49 47.1   -11 40 48     1.843    2.149   93.0   28.1   107    7.5 
2025-08-04 00:00 UT   14 50 55.7   -11 50 08     1.854    2.149   92.3   28.1   107    7.5 
2025-08-05 00:00 UT   14 52 05.4   -11 59 29     1.865    2.149   91.7   28.2   107    7.5 
2025-08-06 00:00 UT   14 53 16.2   -12 08 51     1.876    2.149   91.0   28.2   107    7.5 


    Terminology:
            
    delta:  distance between minor planet and earth in AU
    radius: distance between minor planet and sun in AU
    magn:   magnitude (brightness) estimate    
    ra:     right ascension in hours (24h = 360deg)
    dec:    declination in degrees
    elong:  elongation in degrees (angle sun-earth-minor planet)    
    phase:  phase angle in degrees (angle sun-minor planet-earth)        
    AU:     Astronomical Unit (mean distance between earth and sun: 149597870.7 km
    

Orbital elements provided by the MPC (Minor Planet Center).
Calculations by a modified version of AAPlus, a C# implementation of the AA+ project by PJ Naughter from the algorithms presented in the book "Astronomical Algorithms" by Jean Meeus.
NGC2000 dso catalog and star labels from VizieR as provided by the Strasbourg astronomical Data Center.
Tycho2 catalog from the ESO archive.